This demonstration page uses our WeatherBlox Daily Observations layout. Learn more.

Left ArrowRight Arrow

Hourly Observations for February 15, 2017

Temp ( °F °C ) Dew Point ( °F °C ) Humidity (%) Winds ( mph kmh ) Pressure ( in mb ) Visibility ( mi km ) Precip ( " mm )
12:53 am 00:53 Clear 35 1.7 27 -2.8 72 72 WNW 9 15 30.22 1024 10 16 0.00 0.00
1:53 am 01:53 Clear 33 0.6 27 -2.8 78 78 W 8 13 30.23 1024 10 16 0.00 0.00
2:53 am 02:53 Clear 33 0.6 26 -3.3 75 75 WNW 9 15 30.23 1024 10 16 0.00 0.00
3:53 am 03:53 Clear 32 0 26 -3.3 79 79 WNW 7 11 30.23 1024 10 16 0.00 0.00
4:53 am 04:53 Clear 31 -0.6 26 -3.3 82 82 NNW 7 11 30.24 1024 10 16 0.00 0.00
5:53 am 05:53 Clear 29 -1.7 25 -3.9 85 85 N 8 13 30.24 1024 10 16 0.00 0.00
6:53 am 06:53 Clear 28 -2.2 26 -3.3 92 92 N 7 11 30.25 1024 10 16 0.00 0.00
7:53 am 07:53 Sunny 28 -2.2 26 -3.3 92 92 N 7 11 30.27 1025 10 16 0.00 0.00
8:53 am 08:53 Sunny 37 2.8 30 -1.1 76 76 NNW 5 7 30.27 1025 10 16 0.00 0.00
9:53 am 09:53 Sunny 45 7.2 30 -1.1 56 56 N 9 15 30.27 1025 10 16 0.00 0.00
10:53 am 10:53 Sunny 52 11.1 28 -2.2 40 40 NNE 9 15 30.26 1025 10 16 0.00 0.00
11:33 am 11:33 Mostly Sunny 56 13.3 24 -4.4 29 29 N 8 13 30.21 1023 10 16 0.00 0.00
11:53 am 11:53 Sunny 56 13.3 22 -5.6 27 27 N 13 20 30.24 1024 10 16 0.00 0.00
12:53 pm 12:53 Sunny 57 13.9 22 -5.6 26 26 NNE 9 15 30.21 1023 10 16 0.00 0.00
1:53 pm 13:53 Sunny 58 14.4 22 -5.6 25 25 Calm 30.17 1022 10 16 0.00 0.00
2:53 pm 14:53 Sunny 60 15.6 21 -6.1 22 22 N 8 13 30.15 1021 10 16 0.00 0.00
3:53 pm 15:53 Sunny 60 15.6 20 -6.7 21 21 NW 10 17 30.13 1020 10 16 0.00 0.00
4:53 pm 16:53 Sunny 60 15.6 21 -6.1 22 22 NNE 8 13 30.11 1020 10 16 0.00 0.00
5:53 pm 17:53 Sunny 58 14.4 21 -6.1 24 24 NNW 6 9 30.12 1020 10 16 0.00 0.00
6:53 pm 18:53 Clear 54 12.2 22 -5.6 29 29 Calm 30.14 1021 10 16 0.00 0.00
7:53 pm 19:53 Clear 50 10 22 -5.6 33 33 Calm 30.14 1021 10 16 0.00 0.00
8:53 pm 20:53 Clear 44 6.7 23 -5 43 43 S 6 9 30.14 1021 9 14 0.00 0.00
9:53 pm 21:53 Clear 43 6.1 22 -5.6 43 43 SSW 5 7 30.14 1021 10 16 0.00 0.00
10:53 pm 22:53 Clear 42 5.6 23 -5 47 47 SSW 7 11 30.12 1020 10 16 0.00 0.00
11:53 pm 23:53 Clear 41 5 24 -4.4 51 51 S 8 13 30.11 1020 10 16 0.00 0.00

Powered by AerisWeather